Precipitable_Water
0.62 0.60 0.58 0.57 0.58 0.58 0.59 0.58 0.58 0.55 0.55 0.55 0.54 0.54 0.54 0.55 0.57 0.60 0.60 0.56 0.55 0.55 0.56 0.56 0.58 0.57 0.55 0.53 0.49 0.44 0.38 0.30 0.25 0.20 0.18 0.17 0.34 0.51 0.53 0.54 0.50 0.47 0.46 0.40 0.36 0.33 0.25 0.26 0.26 0.31 0.29 0.28 0.28 0.27 0.31 0.31 0.32 0.28 0.23 0.21 0.19 0.20 0.19 0.21 0.21 0.22 0.23 0.23 0.23 0.25 0.25 0.24 0.23 0.25 0.27 0.47 0.52 0.52 0.63 0.66 0.80 0.89 0.85 0.95 1.03 1.07 1.13 1.19
0.60 0.61 0.61 0.58 0.57 0.56 0.56 0.55 0.55 0.55 0.55 0.55 0.54 0.53 0.52 0.53 0.52 0.53 0.57 0.58 0.54 0.53 0.53 0.55 0.55 0.56 0.57 0.54 0.53 0.49 0.36 0.30 0.22 0.21 0.17 0.29 0.46 0.54 0.57 0.54 0.56 0.51 0.48 0.38 0.31 0.30 0.27 0.24 0.24 0.27 0.25 0.23 0.29 0.24 0.28 0.27 0.30 0.23 0.21 0.20 0.17 0.20 0.21 0.23 0.22 0.23 0.22 0.22 0.24 0.24 0.25 0.24 0.24 0.25 0.26 0.23 0.36 0.45 0.46 0.63 0.76 0.76 0.85 0.95 1.02 1.08 1.09 1.12
0.61 0.60 0.58 0.58 0.57 0.55 0.55 0.55 0.55 0.54 0.53 0.52 0.53 0.52 0.51 0.52 0.52 0.50 0.51 0.55 0.57 0.54 0.53 0.51 0.53 0.54 0.54 0.54 0.52 0.47 0.38 0.26 0.24 0.15 0.34 0.60 0.56 0.54 0.52 0.51 0.55 0.54 0.45 0.33 0.36 0.35 0.30 0.27 0.26 0.25 0.23 0.20 0.23 0.20 0.24 0.24 0.26 0.25 0.21 0.18 0.18 0.21 0.22 0.23 0.23 0.22 0.23 0.23 0.22 0.23 0.24 0.24 0.24 0.24 0.27 0.23 0.30 0.41 0.39 0.48 0.66 0.68 0.70 0.80 0.92 1.05 1.06 1.08
0.60 0.58 0.56 0.56 0.57 0.57 0.55 0.54 0.54 0.53 0.52 0.52 0.52 0.52 0.53 0.52 0.53 0.54 0.51 0.51 0.55 0.55 0.51 0.51 0.50 0.51 0.52 0.51 0.51 0.44 0.30 0.28 0.17 0.25 0.46 0.57 0.52 0.47 0.48 0.57 0.60 0.54 0.46 0.40 0.39 0.39 0.38 0.33 0.28 0.26 0.23 0.19 0.20 0.22 0.18 0.22 0.21 0.23 0.21 0.17 0.19 0.22 0.21 0.22 0.23 0.22 0.23 0.23 0.22 0.22 0.23 0.23 0.24 0.26 0.26 0.29 0.29 0.33 0.42 0.58 0.54 0.62 0.74 0.82 0.92 1.00 1.06 1.05
0.57 0.57 0.55 0.55 0.55 0.55 0.54 0.54 0.54 0.54 0.54 0.53 0.53 0.53 0.53 0.54 0.54 0.52 0.51 0.50 0.50 0.53 0.51 0.51 0.50 0.50 0.49 0.52 0.47 0.42 0.28 0.14 0.23 0.45 0.61 0.55 0.52 0.47 0.45 0.64 0.65 0.56 0.43 0.39 0.41 0.40 0.39 0.33 0.27 0.24 0.23 0.19 0.20 0.19 0.18 0.20 0.22 0.22 0.19 0.21 0.21 0.21 0.20 0.22 0.23 0.23 0.22 0.23 0.22 0.21 0.20 0.21 0.25 0.27 0.27 0.27 0.21 0.22 0.37 0.55 0.66 0.70 0.85 0.83 0.85 0.95 1.01 0.96
0.57 0.56 0.56 0.54 0.54 0.55 0.55 0.54 0.54 0.54 0.54 0.53 0.54 0.54 0.54 0.53 0.54 0.53 0.51 0.50 0.48 0.48 0.50 0.50 0.51 0.48 0.52 0.50 0.45 0.35 0.22 0.10 0.43 0.48 0.59 0.61 0.53 0.48 0.45 0.52 0.67 0.60 0.47 0.38 0.35 0.37 0.35 0.31 0.28 0.21 0.19 0.20 0.19 0.15 0.17 0.19 0.21 0.14 0.18 0.20 0.21 0.21 0.19 0.21 0.22 0.23 0.23 0.21 0.20 0.19 0.20 0.21 0.20 0.20 0.35 0.31 0.24 0.32 0.54 0.72 0.81 0.86 0.93 0.96 0.94 0.88 0.87 0.88
0.59 0.59 0.58 0.56 0.55 0.56 0.57 0.56 0.55 0.55 0.54 0.53 0.53 0.54 0.53 0.53 0.52 0.52 0.52 0.50 0.50 0.49 0.48 0.50 0.50 0.48 0.51 0.50 0.41 0.32 0.19 0.16 0.21 0.35 0.45 0.51 0.50 0.50 0.47 0.46 0.56 0.58 0.48 0.36 0.35 0.34 0.33 0.30 0.27 0.21 0.19 0.18 0.20 0.18 0.20 0.18 0.20 0.17 0.13 0.18 0.18 0.20 0.19 0.20 0.19 0.21 0.21 0.20 0.19 0.20 0.20 0.17 0.17 0.15 0.40 0.29 0.41 0.50 0.61 0.78 0.92 0.99 1.00 0.97 0.83 0.84 0.80 0.82
0.61 0.60 0.60 0.59 0.58 0.58 0.58 0.57 0.57 0.57 0.55 0.54 0.54 0.54 0.53 0.52 0.51 0.51 0.52 0.51 0.49 0.49 0.49 0.49 0.50 0.48 0.50 0.40 0.29 0.21 0.20 0.15 0.28 0.31 0.38 0.45 0.45 0.44 0.46 0.45 0.44 0.50 0.46 0.38 0.36 0.35 0.34 0.29 0.25 0.25 0.21 0.17 0.18 0.18 0.21 0.20 0.19 0.16 0.15 0.17 0.19 0.19 0.18 0.18 0.18 0.18 0.18 0.18 0.19 0.19 0.17 0.16 0.16 0.16 0.27 0.27 0.40 0.53 0.59 0.74 0.85 0.98 0.94 0.92 0.87 0.82 0.85 0.86
0.61 0.61 0.62 0.61 0.61 0.60 0.59 0.58 0.59 0.58 0.57 0.56 0.56 0.56 0.56 0.54 0.53 0.51 0.50 0.50 0.49 0.47 0.48 0.48 0.48 0.47 0.52 0.41 0.27 0.18 0.13 0.22 0.29 0.33 0.32 0.39 0.41 0.41 0.42 0.40 0.43 0.38 0.41 0.44 0.45 0.41 0.36 0.31 0.30 0.28 0.20 0.20 0.22 0.18 0.20 0.18 0.15 0.18 0.17 0.18 0.18 0.19 0.20 0.17 0.17 0.17 0.17 0.17 0.17 0.16 0.15 0.16 0.17 0.21 0.22 0.31 0.40 0.59 0.67 0.73 0.85 0.92 0.87 0.85 0.83 0.86 0.84 0.82
0.62 0.62 0.63 0.62 0.61 0.60 0.60 0.60 0.59 0.59 0.58 0.58 0.58 0.57 0.57 0.56 0.54 0.54 0.53 0.52 0.50 0.48 0.46 0.47 0.48 0.49 0.43 0.34 0.28 0.14 0.16 0.33 0.40 0.38 0.34 0.35 0.38 0.40 0.39 0.39 0.42 0.38 0.35 0.41 0.43 0.42 0.38 0.35 0.32 0.33 0.28 0.23 0.23 0.19 0.21 0.18 0.15 0.21 0.19 0.19 0.18 0.19 0.20 0.19 0.16 0.16 0.17 0.18 0.18 0.16 0.15 0.16 0.21 0.20 0.17 0.45 0.53 0.66 0.68 0.73 0.87 0.83 0.80 0.82 0.82 0.86 0.88 0.87
0.61 0.60 0.60 0.60 0.59 0.60 0.61 0.60 0.60 0.61 0.61 0.59 0.58 0.58 0.57 0.56 0.54 0.52 0.52 0.51 0.52 0.51 0.48 0.46 0.48 0.46 0.36 0.36 0.20 0.12 0.28 0.24 0.29 0.31 0.34 0.31 0.33 0.35 0.37 0.39 0.41 0.38 0.37 0.38 0.40 0.43 0.43 0.42 0.39 0.36 0.30 0.23 0.23 0.21 0.21 0.20 0.20 0.20 0.22 0.21 0.19 0.19 0.20 0.19 0.18 0.17 0.17 0.16 0.18 0.18 0.17 0.19 0.21 0.26 0.19 0.36 0.60 0.72 0.65 0.74 0.83 0.82 0.79 0.80 0.83 0.85 0.89 0.93
0.62 0.61 0.59 0.59 0.59 0.59 0.59 0.60 0.61 0.61 0.61 0.60 0.60 0.58 0.57 0.55 0.54 0.53 0.51 0.51 0.50 0.52 0.50 0.48 0.48 0.46 0.38 0.29 0.21 0.15 0.27 0.25 0.30 0.31 0.31 0.32 0.28 0.35 0.39 0.40 0.40 0.39 0.38 0.34 0.39 0.43 0.44 0.43 0.42 0.34 0.24 0.28 0.20 0.22 0.20 0.24 0.22 0.20 0.20 0.17 0.19 0.19 0.16 0.17 0.16 0.17 0.18 0.15 0.18 0.18 0.16 0.15 0.20 0.19 0.25 0.44 0.56 0.70 0.69 0.74 0.81 0.81 0.80 0.82 0.84 0.88 0.90 0.90
0.62 0.62 0.60 0.60 0.61 0.61 0.60 0.61 0.61 0.60 0.60 0.61 0.60 0.59 0.56 0.55 0.53 0.52 0.51 0.49 0.51 0.51 0.52 0.50 0.48 0.45 0.34 0.18 0.18 0.28 0.34 0.34 0.30 0.29 0.28 0.32 0.31 0.35 0.40 0.39 0.39 0.40 0.40 0.38 0.39 0.44 0.44 0.43 0.42 0.33 0.32 0.28 0.23 0.19 0.23 0.24 0.22 0.22 0.19 0.17 0.17 0.16 0.15 0.16 0.18 0.19 0.18 0.17 0.19 0.18 0.09 0.10 0.14 0.20 0.34 0.51 0.54 0.65 0.67 0.72 0.81 0.81 0.80 0.82 0.84 0.84 0.91 0.95
0.63 0.62 0.60 0.61 0.63 0.63 0.63 0.62 0.61 0.62 0.62 0.61 0.58 0.56 0.54 0.52 0.51 0.49 0.49 0.47 0.49 0.52 0.53 0.51 0.49 0.42 0.32 0.19 0.23 0.29 0.33 0.32 0.30 0.26 0.24 0.31 0.28 0.28 0.36 0.38 0.39 0.40 0.43 0.43 0.44 0.46 0.44 0.45 0.41 0.38 0.38 0.30 0.24 0.31 0.25 0.23 0.22 0.17 0.18 0.17 0.14 0.13 0.12 0.15 0.16 0.16 0.16 0.19 0.19 0.19 0.10 0.10 0.13 0.19 0.43 0.53 0.53 0.54 0.55 0.67 0.75 0.76 0.77 0.80 0.84 0.85 0.87 0.92
0.63 0.61 0.58 0.62 0.65 0.65 0.66 0.65 0.65 0.65 0.64 0.59 0.55 0.52 0.51 0.48 0.48 0.46 0.45 0.45 0.44 0.48 0.50 0.52 0.49 0.36 0.24 0.20 0.32 0.31 0.35 0.36 0.26 0.25 0.28 0.28 0.27 0.26 0.32 0.38 0.37 0.39 0.42 0.45 0.43 0.45 0.46 0.44 0.39 0.32 0.28 0.33 0.32 0.26 0.21 0.21 0.20 0.18 0.15 0.12 0.13 0.12 0.12 0.15 0.17 0.16 0.13 0.17 0.20 0.17 0.11 0.10 0.13 0.21 0.49 0.57 0.57 0.56 0.52 0.63 0.69 0.72 0.75 0.78 0.82 0.83 0.86 0.90
0.65 0.64 0.64 0.69 0.70 0.69 0.68 0.68 0.68 0.67 0.65 0.61 0.54 0.51 0.48 0.46 0.42 0.42 0.42 0.42 0.43 0.42 0.45 0.35 0.35 0.33 0.23 0.15 0.21 0.40 0.30 0.21 0.22 0.29 0.36 0.37 0.34 0.27 0.34 0.35 0.39 0.40 0.44 0.46 0.49 0.47 0.45 0.43 0.32 0.30 0.29 0.29 0.25 0.22 0.20 0.18 0.18 0.18 0.13 0.11 0.11 0.11 0.12 0.13 0.16 0.17 0.17 0.17 0.18 0.16 0.11 0.12 0.12 0.31 0.48 0.61 0.56 0.58 0.55 0.61 0.66 0.70 0.73 0.77 0.79 0.82 0.85 0.90
0.69 0.71 0.71 0.72 0.74 0.74 0.74 0.72 0.69 0.68 0.67 0.62 0.55 0.49 0.46 0.41 0.41 0.42 0.42 0.42 0.42 0.45 0.39 0.31 0.38 0.41 0.17 0.26 0.36 0.21 0.18 0.24 0.31 0.29 0.33 0.37 0.34 0.31 0.31 0.33 0.33 0.37 0.42 0.45 0.46 0.45 0.42 0.35 0.34 0.30 0.30 0.24 0.23 0.22 0.17 0.15 0.14 0.15 0.15 0.12 0.12 0.11 0.11 0.11 0.15 0.17 0.17 0.16 0.14 0.16 0.14 0.14 0.20 0.30 0.43 0.57 0.58 0.59 0.56 0.60 0.65 0.69 0.71 0.75 0.79 0.83 0.85 0.86
0.71 0.72 0.72 0.73 0.74 0.74 0.76 0.76 0.72 0.70 0.67 0.62 0.54 0.48 0.40 0.41 0.43 0.43 0.43 0.44 0.46 0.45 0.44 0.49 0.45 0.35 0.23 0.32 0.19 0.22 0.30 0.25 0.25 0.29 0.30 0.34 0.34 0.31 0.31 0.30 0.34 0.37 0.40 0.40 0.44 0.37 0.39 0.31 0.32 0.23 0.24 0.23 0.22 0.19 0.15 0.11 0.12 0.13 0.14 0.12 0.12 0.13 0.13 0.11 0.12 0.15 0.17 0.16 0.14 0.15 0.14 0.13 0.25 0.37 0.43 0.49 0.56 0.55 0.52 0.57 0.61 0.64 0.69 0.73 0.76 0.79 0.83 0.84
0.72 0.72 0.72 0.74 0.75 0.75 0.75 0.76 0.72 0.71 0.67 0.61 0.55 0.48 0.46 0.45 0.44 0.43 0.38 0.38 0.30 0.26 0.21 0.27 0.29 0.15 0.10 0.16 0.24 0.26 0.28 0.31 0.32 0.29 0.27 0.30 0.36 0.37 0.35 0.34 0.36 0.35 0.32 0.33 0.35 0.36 0.36 0.31 0.29 0.24 0.19 0.19 0.18 0.17 0.16 0.16 0.17 0.15 0.15 0.14 0.13 0.11 0.11 0.11 0.13 0.16 0.16 0.14 0.13 0.13 0.12 0.12 0.24 0.32 0.42 0.54 0.59 0.56 0.57 0.65 0.66 0.67 0.70 0.71 0.72 0.76 0.80 0.82
0.71 0.72 0.73 0.74 0.75 0.75 0.75 0.76 0.73 0.70 0.68 0.57 0.49 0.43 0.39 0.29 0.26 0.23 0.36 0.35 0.26 0.23 0.25 0.28 0.33 0.28 0.26 0.25 0.26 0.33 0.36 0.35 0.25 0.26 0.31 0.35 0.36 0.36 0.33 0.30 0.30 0.36 0.32 0.28 0.32 0.34 0.35 0.25 0.21 0.18 0.17 0.18 0.19 0.20 0.20 0.20 0.20 0.19 0.18 0.16 0.13 0.12 0.12 0.13 0.13 0.15 0.17 0.14 0.13 0.12 0.13 0.14 0.22 0.30 0.39 0.51 0.60 0.62 0.63 0.62 0.62 0.62 0.63 0.66 0.70 0.74 0.78 0.83
0.72 0.72 0.72 0.72 0.74 0.75 0.75 0.75 0.74 0.71 0.68 0.60 0.49 0.41 0.28 0.28 0.20 0.17 0.26 0.27 0.29 0.32 0.31 0.31 0.33 0.30 0.26 0.29 0.32 0.30 0.25 0.24 0.30 0.26 0.28 0.39 0.35 0.34 0.30 0.27 0.24 0.25 0.30 0.32 0.32 0.36 0.33 0.24 0.21 0.21 0.22 0.22 0.21 0.21 0.21 0.21 0.21 0.18 0.16 0.16 0.14 0.13 0.11 0.13 0.13 0.15 0.16 0.14 0.13 0.13 0.13 0.15 0.22 0.30 0.38 0.54 0.57 0.55 0.57 0.58 0.58 0.58 0.60 0.64 0.67 0.71 0.77 0.83
0.70 0.72 0.72 0.71 0.73 0.75 0.75 0.75 0.75 0.70 0.68 0.59 0.48 0.41 0.42 0.41 0.45 0.47 0.40 0.21 0.27 0.33 0.34 0.32 0.36 0.32 0.36 0.35 0.36 0.37 0.34 0.23 0.20 0.24 0.29 0.35 0.30 0.26 0.30 0.25 0.19 0.20 0.30 0.33 0.34 0.29 0.25 0.21 0.22 0.25 0.26 0.25 0.23 0.21 0.21 0.20 0.19 0.19 0.17 0.15 0.15 0.14 0.14 0.14 0.14 0.15 0.15 0.15 0.13 0.14 0.12 0.15 0.23 0.29 0.42 0.49 0.51 0.55 0.57 0.54 0.52 0.54 0.57 0.62 0.66 0.71 0.78 0.85
0.71 0.72 0.72 0.73 0.74 0.75 0.75 0.76 0.74 0.70 0.62 0.52 0.43 0.46 0.44 0.53 0.58 0.59 0.50 0.34 0.23 0.32 0.29 0.31 0.30 0.30 0.30 0.35 0.36 0.39 0.24 0.20 0.16 0.21 0.28 0.36 0.33 0.29 0.31 0.24 0.20 0.21 0.29 0.32 0.27 0.25 0.21 0.22 0.27 0.29 0.27 0.24 0.22 0.21 0.19 0.19 0.20 0.19 0.17 0.15 0.13 0.15 0.13 0.11 0.14 0.15 0.15 0.15 0.14 0.15 0.13 0.18 0.30 0.40 0.45 0.54 0.55 0.57 0.64 0.67 0.67 0.67 0.62 0.60 0.62 0.68 0.75 0.80
0.70 0.72 0.73 0.74 0.75 0.75 0.76 0.76 0.75 0.66 0.60 0.54 0.49 0.49 0.57 0.61 0.61 0.57 0.42 0.26 0.22 0.23 0.29 0.31 0.32 0.34 0.31 0.27 0.37 0.32 0.24 0.24 0.24 0.19 0.31 0.32 0.30 0.36 0.30 0.27 0.21 0.22 0.23 0.28 0.28 0.25 0.23 0.26 0.30 0.29 0.27 0.24 0.21 0.20 0.18 0.17 0.17 0.20 0.19 0.16 0.15 0.15 0.15 0.13 0.13 0.15 0.18 0.22 0.22 0.20 0.19 0.24 0.32 0.32 0.40 0.52 0.63 0.59 0.63 0.68 0.70 0.73 0.75 0.76 0.78 0.80 0.85 0.85
0.69 0.72 0.75 0.75 0.76 0.77 0.75 0.75 0.64 0.60 0.62 0.54 0.51 0.58 0.63 0.65 0.63 0.58 0.39 0.29 0.28 0.25 0.36 0.33 0.40 0.35 0.33 0.45 0.41 0.26 0.27 0.29 0.25 0.29 0.36 0.33 0.32 0.34 0.29 0.33 0.27 0.19 0.22 0.27 0.30 0.29 0.27 0.31 0.32 0.27 0.27 0.25 0.22 0.19 0.18 0.17 0.16 0.18 0.20 0.19 0.17 0.17 0.15 0.15 0.15 0.14 0.13 0.16 0.25 0.17 0.14 0.16 0.31 0.35 0.33 0.43 0.52 0.53 0.62 0.60 0.60 0.66 0.72 0.74 0.72 0.75 0.86 0.93
0.68 0.71 0.75 0.77 0.77 0.76 0.78 0.62 0.61 0.64 0.57 0.46 0.52 0.63 0.67 0.66 0.65 0.58 0.39 0.24 0.17 0.21 0.28 0.23 0.39 0.27 0.38 0.33 0.36 0.30 0.32 0.21 0.27 0.31 0.37 0.38 0.44 0.36 0.36 0.29 0.28 0.18 0.22 0.27 0.29 0.30 0.29 0.32 0.31 0.27 0.25 0.24 0.22 0.20 0.19 0.18 0.16 0.17 0.18 0.21 0.20 0.18 0.17 0.16 0.15 0.14 0.11 0.10 0.22 0.23 0.11 0.12 0.33 0.33 0.38 0.43 0.44 0.46 0.57 0.58 0.59 0.64 0.68 0.68 0.69 0.75 0.82 0.86
0.67 0.71 0.75 0.76 0.76 0.77 0.63 0.53 0.69 0.65 0.49 0.49 0.66 0.69 0.67 0.64 0.66 0.55 0.32 0.20 0.16 0.27 0.22 0.31 0.31 0.29 0.34 0.33 0.34 0.31 0.13 0.16 0.30 0.33 0.34 0.44 0.36 0.41 0.31 0.28 0.26 0.26 0.28 0.30 0.29 0.26 0.32 0.31 0.30 0.30 0.26 0.23 0.21 0.19 0.20 0.18 0.16 0.16 0.21 0.21 0.21 0.19 0.17 0.16 0.15 0.15 0.13 0.16 0.25 0.24 0.17 0.15 0.20 0.31 0.44 0.46 0.42 0.44 0.49 0.54 0.58 0.61 0.61 0.61 0.67 0.74 0.80 0.85
0.68 0.71 0.74 0.77 0.77 0.77 0.67 0.70 0.64 0.55 0.52 0.57 0.67 0.69 0.69 0.64 0.60 0.55 0.28 0.13 0.11 0.32 0.25 0.30 0.33 0.40 0.35 0.36 0.36 0.24 0.21 0.29 0.22 0.32 0.42 0.46 0.42 0.35 0.32 0.27 0.25 0.22 0.26 0.27 0.19 0.26 0.30 0.28 0.29 0.27 0.26 0.23 0.21 0.21 0.22 0.21 0.16 0.17 0.22 0.23 0.21 0.20 0.18 0.17 0.16 0.16 0.16 0.14 0.16 0.21 0.25 0.14 0.16 0.31 0.47 0.50 0.39 0.43 0.46 0.49 0.51 0.53 0.57 0.63 0.67 0.73 0.78 0.84
0.68 0.71 0.74 0.76 0.78 0.79 0.79 0.70 0.64 0.55 0.63 0.69 0.69 0.69 0.68 0.66 0.53 0.33 0.21 0.13 0.27 0.25 0.46 0.29 0.50 0.37 0.37 0.35 0.30 0.28 0.25 0.29 0.24 0.33 0.43 0.46 0.42 0.35 0.27 0.29 0.27 0.26 0.26 0.26 0.22 0.26 0.31 0.31 0.31 0.30 0.27 0.23 0.24 0.25 0.23 0.22 0.17 0.20 0.23 0.24 0.23 0.22 0.20 0.19 0.16 0.16 0.16 0.13 0.10 0.15 0.22 0.12 0.15 0.28 0.38 0.49 0.43 0.38 0.40 0.43 0.46 0.49 0.56 0.60 0.64 0.70 0.76 0.83
0.68 0.70 0.74 0.77 0.77 0.75 0.73 0.75 0.64 0.67 0.70 0.70 0.70 0.69 0.67 0.58 0.40 0.23 0.16 0.12 0.33 0.19 0.32 0.34 0.33 0.28 0.36 0.28 0.25 0.27 0.23 0.26 0.30 0.34 0.40 0.38 0.37 0.36 0.35 0.37 0.27 0.23 0.22 0.26 0.28 0.29 0.30 0.34 0.37 0.32 0.27 0.29 0.28 0.26 0.25 0.23 0.21 0.22 0.22 0.22 0.22 0.21 0.20 0.20 0.18 0.16 0.15 0.11 0.10 0.13 0.21 0.16 0.11 0.23 0.29 0.34 0.35 0.39 0.37 0.39 0.47 0.54 0.58 0.62 0.66 0.69 0.73 0.78
0.67 0.70 0.74 0.78 0.69 0.72 0.71 0.60 0.65 0.72 0.73 0.72 0.71 0.67 0.58 0.43 0.26 0.19 0.13 0.17 0.28 0.27 0.34 0.33 0.28 0.36 0.30 0.25 0.19 0.27 0.25 0.24 0.27 0.33 0.30 0.38 0.33 0.33 0.33 0.28 0.31 0.22 0.22 0.23 0.25 0.29 0.29 0.30 0.32 0.33 0.34 0.33 0.32 0.26 0.26 0.25 0.23 0.21 0.20 0.20 0.20 0.19 0.19 0.18 0.16 0.16 0.11 0.09 0.11 0.14 0.19 0.20 0.11 0.17 0.31 0.35 0.40 0.38 0.35 0.32 0.38 0.44 0.48 0.54 0.62 0.68 0.73 0.78
0.66 0.71 0.75 0.76 0.77 0.81 0.62 0.57 0.68 0.75 0.71 0.72 0.67 0.55 0.44 0.24 0.28 0.17 0.16 0.36 0.19 0.24 0.25 0.27 0.32 0.30 0.28 0.31 0.24 0.23 0.22 0.23 0.27 0.30 0.30 0.30 0.29 0.26 0.27 0.22 0.22 0.15 0.15 0.19 0.20 0.27 0.25 0.26 0.30 0.32 0.37 0.32 0.30 0.25 0.23 0.24 0.22 0.20 0.19 0.20 0.17 0.15 0.15 0.12 0.13 0.10 0.09 0.08 0.12 0.15 0.18 0.18 0.14 0.18 0.23 0.33 0.34 0.39 0.42 0.39 0.37 0.40 0.46 0.56 0.65 0.71 0.76 0.81
0.66 0.71 0.76 0.77 0.79 0.74 0.75 0.76 0.78 0.76 0.75 0.70 0.60 0.51 0.32 0.22 0.15 0.21 0.22 0.27 0.20 0.29 0.26 0.34 0.30 0.31 0.30 0.27 0.22 0.23 0.26 0.19 0.25 0.27 0.34 0.31 0.28 0.27 0.29 0.27 0.25 0.19 0.13 0.18 0.19 0.22 0.23 0.28 0.29 0.30 0.33 0.33 0.31 0.22 0.20 0.19 0.20 0.18 0.17 0.17 0.15 0.13 0.12 0.10 0.10 0.11 0.11 0.13 0.16 0.16 0.18 0.12 0.18 0.19 0.26 0.27 0.32 0.33 0.35 0.38 0.43 0.43 0.48 0.58 0.67 0.74 0.78 0.81
0.67 0.73 0.71 0.77 0.78 0.79 0.80 0.81 0.79 0.79 0.71 0.65 0.51 0.39 0.30 0.19 0.17 0.29 0.25 0.27 0.26 0.35 0.33 0.31 0.33 0.33 0.32 0.25 0.23 0.24 0.19 0.24 0.24 0.26 0.30 0.28 0.26 0.23 0.25 0.27 0.27 0.21 0.20 0.19 0.18 0.20 0.18 0.20 0.25 0.27 0.24 0.30 0.29 0.26 0.21 0.19 0.18 0.17 0.18 0.17 0.15 0.14 0.11 0.09 0.10 0.09 0.09 0.11 0.14 0.20 0.14 0.11 0.12 0.13 0.22 0.23 0.25 0.28 0.31 0.39 0.48 0.55 0.62 0.69 0.77 0.79 0.81 0.82
0.68 0.71 0.74 0.78 0.78 0.81 0.81 0.80 0.80 0.78 0.70 0.56 0.41 0.31 0.20 0.19 0.24 0.23 0.24 0.28 0.31 0.34 0.32 0.39 0.32 0.29 0.26 0.29 0.31 0.27 0.23 0.20 0.25 0.25 0.26 0.27 0.22 0.23 0.21 0.23 0.25 0.25 0.24 0.17 0.21 0.21 0.20 0.20 0.25 0.28 0.28 0.29 0.26 0.29 0.28 0.22 0.20 0.19 0.19 0.19 0.17 0.16 0.17 0.12 0.14 0.13 0.12 0.13 0.12 0.15 0.12 0.16 0.14 0.29 0.29 0.29 0.31 0.34 0.39 0.43 0.48 0.53 0.62 0.69 0.73 0.75 0.77 0.81
0.65 0.67 0.76 0.73 0.75 0.81 0.83 0.80 0.80 0.75 0.63 0.48 0.33 0.25 0.21 0.24 0.22 0.30 0.27 0.37 0.36 0.30 0.31 0.33 0.31 0.26 0.25 0.25 0.30 0.25 0.28 0.20 0.26 0.23 0.23 0.27 0.26 0.22 0.24 0.24 0.24 0.25 0.22 0.17 0.21 0.18 0.21 0.20 0.26 0.27 0.29 0.28 0.27 0.28 0.28 0.26 0.15 0.18 0.18 0.14 0.15 0.20 0.19 0.16 0.17 0.18 0.15 0.13 0.11 0.16 0.13 0.18 0.26 0.31 0.31 0.28 0.29 0.33 0.37 0.41 0.46 0.51 0.57 0.62 0.65 0.72 0.77 0.81
0.58 0.67 0.63 0.71 0.77 0.84 0.85 0.82 0.78 0.69 0.58 0.43 0.30 0.23 0.27 0.29 0.33 0.32 0.36 0.32 0.33 0.35 0.31 0.22 0.24 0.23 0.23 0.23 0.24 0.26 0.24 0.22 0.25 0.21 0.18 0.25 0.23 0.24 0.23 0.23 0.27 0.25 0.26 0.24 0.21 0.27 0.18 0.19 0.26 0.25 0.23 0.27 0.29 0.28 0.28 0.27 0.24 0.20 0.15 0.16 0.21 0.24 0.21 0.16 0.12 0.16 0.14 0.10 0.10 0.15 0.12 0.15 0.15 0.13 0.31 0.28 0.26 0.30 0.35 0.39 0.43 0.50 0.57 0.56 0.62 0.69 0.75 0.80
0.56 0.61 0.66 0.70 0.79 0.86 0.86 0.83 0.74 0.63 0.51 0.38 0.27 0.27 0.35 0.29 0.37 0.36 0.40 0.38 0.37 0.37 0.30 0.26 0.26 0.29 0.24 0.24 0.23 0.25 0.25 0.17 0.21 0.20 0.18 0.22 0.20 0.26 0.23 0.22 0.25 0.25 0.27 0.28 0.23 0.23 0.26 0.19 0.23 0.25 0.25 0.26 0.28 0.27 0.25 0.26 0.26 0.20 0.16 0.22 0.16 0.15 0.14 0.17 0.15 0.12 0.12 0.10 0.11 0.13 0.15 0.17 0.16 0.14 0.24 0.24 0.23 0.26 0.32 0.41 0.45 0.47 0.52 0.55 0.61 0.69 0.76 0.84
0.57 0.58 0.54 0.70 0.85 0.86 0.85 0.82 0.68 0.55 0.42 0.32 0.28 0.25 0.33 0.34 0.39 0.38 0.41 0.41 0.41 0.35 0.29 0.30 0.26 0.30 0.30 0.26 0.27 0.27 0.24 0.14 0.22 0.19 0.16 0.20 0.17 0.23 0.22 0.23 0.22 0.26 0.28 0.29 0.25 0.26 0.27 0.21 0.21 0.26 0.25 0.26 0.25 0.24 0.18 0.20 0.23 0.23 0.23 0.18 0.20 0.18 0.15 0.15 0.15 0.18 0.15 0.12 0.11 0.12 0.15 0.12 0.20 0.17 0.22 0.20 0.23 0.25 0.31 0.37 0.38 0.42 0.47 0.54 0.59 0.66 0.73 0.79
0.50 0.49 0.50 0.77 0.86 0.88 0.85 0.76 0.58 0.49 0.38 0.28 0.30 0.30 0.37 0.34 0.38 0.42 0.46 0.43 0.37 0.35 0.32 0.31 0.34 0.29 0.31 0.29 0.29 0.23 0.23 0.18 0.21 0.20 0.18 0.23 0.19 0.26 0.23 0.24 0.23 0.24 0.28 0.28 0.27 0.29 0.23 0.29 0.19 0.23 0.26 0.26 0.20 0.21 0.18 0.19 0.17 0.18 0.18 0.16 0.16 0.16 0.20 0.18 0.19 0.16 0.14 0.14 0.12 0.13 0.13 0.15 0.21 0.22 0.23 0.23 0.24 0.29 0.30 0.31 0.35 0.42 0.49 0.56 0.62 0.67 0.73 0.80
0.54 0.48 0.52 0.81 0.86 0.86 0.80 0.64 0.47 0.38 0.34 0.37 0.39 0.35 0.38 0.35 0.39 0.41 0.46 0.47 0.42 0.48 0.38 0.35 0.34 0.29 0.31 0.27 0.27 0.28 0.19 0.19 0.21 0.20 0.18 0.22 0.20 0.17 0.24 0.23 0.24 0.24 0.27 0.27 0.26 0.27 0.24 0.26 0.23 0.23 0.21 0.20 0.19 0.21 0.21 0.21 0.20 0.18 0.17 0.16 0.15 0.15 0.15 0.13 0.13 0.18 0.16 0.14 0.14 0.13 0.12 0.20 0.22 0.29 0.24 0.24 0.28 0.30 0.33 0.31 0.34 0.41 0.49 0.57 0.64 0.72 0.77 0.80
0.44 0.36 0.48 0.81 0.85 0.81 0.63 0.44 0.42 0.44 0.38 0.33 0.33 0.39 0.36 0.46 0.41 0.40 0.43 0.46 0.44 0.40 0.46 0.38 0.37 0.34 0.30 0.28 0.27 0.25 0.19 0.18 0.21 0.20 0.18 0.19 0.23 0.23 0.24 0.27 0.25 0.27 0.25 0.22 0.24 0.29 0.30 0.30 0.26 0.20 0.19 0.20 0.23 0.24 0.24 0.24 0.22 0.20 0.19 0.17 0.18 0.17 0.17 0.15 0.12 0.14 0.16 0.16 0.19 0.19 0.14 0.16 0.29 0.33 0.31 0.31 0.36 0.36 0.36 0.37 0.37 0.43 0.52 0.60 0.68 0.76 0.82 0.85
0.41 0.39 0.62 0.81 0.85 0.73 0.55 0.42 0.44 0.40 0.36 0.40 0.47 0.45 0.47 0.45 0.43 0.42 0.39 0.41 0.38 0.43 0.39 0.38 0.37 0.32 0.30 0.28 0.27 0.23 0.21 0.18 0.20 0.19 0.18 0.20 0.23 0.24 0.25 0.25 0.27 0.26 0.27 0.27 0.28 0.29 0.32 0.26 0.23 0.22 0.24 0.26 0.27 0.26 0.25 0.24 0.23 0.20 0.20 0.20 0.18 0.16 0.16 0.15 0.15 0.16 0.15 0.16 0.15 0.16 0.14 0.17 0.28 0.39 0.37 0.36 0.40 0.45 0.48 0.49 0.49 0.54 0.61 0.67 0.71 0.76 0.80 0.85
0.42 0.44 0.52 0.77 0.85 0.72 0.50 0.34 0.34 0.37 0.38 0.42 0.42 0.41 0.48 0.46 0.44 0.40 0.38 0.39 0.37 0.38 0.35 0.37 0.38 0.38 0.28 0.32 0.28 0.22 0.26 0.17 0.21 0.21 0.19 0.24 0.22 0.26 0.25 0.24 0.26 0.24 0.24 0.25 0.24 0.31 0.25 0.27 0.25 0.21 0.19 0.20 0.22 0.23 0.22 0.23 0.22 0.19 0.18 0.18 0.18 0.18 0.17 0.18 0.18 0.21 0.15 0.15 0.15 0.15 0.13 0.15 0.30 0.42 0.42 0.40 0.42 0.43 0.47 0.52 0.54 0.54 0.63 0.69 0.74 0.78 0.83 0.88
0.43 0.50 0.51 0.62 0.78 0.69 0.45 0.46 0.41 0.39 0.37 0.36 0.36 0.36 0.40 0.43 0.47 0.45 0.41 0.37 0.42 0.42 0.41 0.35 0.38 0.37 0.33 0.34 0.29 0.29 0.30 0.28 0.21 0.26 0.28 0.28 0.27 0.31 0.28 0.25 0.25 0.25 0.28 0.31 0.31 0.36 0.29 0.30 0.28 0.20 0.15 0.15 0.15 0.15 0.15 0.16 0.17 0.18 0.18 0.18 0.19 0.18 0.17 0.17 0.14 0.16 0.13 0.17 0.17 0.15 0.15 0.19 0.32 0.42 0.41 0.42 0.44 0.45 0.49 0.52 0.59 0.65 0.66 0.69 0.74 0.79 0.83 0.87
0.36 0.28 0.39 0.49 0.64 0.62 0.57 0.59 0.50 0.43 0.39 0.36 0.34 0.36 0.40 0.37 0.42 0.46 0.46 0.40 0.44 0.42 0.43 0.40 0.41 0.38 0.32 0.31 0.27 0.25 0.26 0.31 0.27 0.27 0.28 0.26 0.29 0.33 0.31 0.25 0.24 0.26 0.30 0.32 0.39 0.35 0.32 0.35 0.33 0.28 0.21 0.17 0.17 0.17 0.20 0.20 0.18 0.16 0.16 0.17 0.17 0.18 0.19 0.18 0.17 0.16 0.14 0.17 0.16 0.17 0.18 0.20 0.27 0.37 0.37 0.40 0.43 0.41 0.42 0.48 0.53 0.58 0.67 0.74 0.78 0.81 0.83 0.85
0.42 0.30 0.34 0.35 0.51 0.55 0.50 0.53 0.48 0.46 0.39 0.42 0.32 0.37 0.34 0.37 0.40 0.41 0.48 0.36 0.43 0.42 0.43 0.41 0.38 0.33 0.30 0.31 0.26 0.25 0.30 0.30 0.35 0.33 0.28 0.28 0.34 0.35 0.32 0.26 0.25 0.28 0.31 0.34 0.44 0.38 0.35 0.31 0.31 0.30 0.27 0.26 0.27 0.22 0.22 0.21 0.18 0.18 0.17 0.17 0.19 0.19 0.19 0.18 0.16 0.15 0.19 0.18 0.16 0.20 0.21 0.20 0.22 0.34 0.39 0.41 0.44 0.46 0.48 0.50 0.54 0.61 0.66 0.71 0.75 0.79 0.82 0.85
0.29 0.36 0.44 0.47 0.42 0.39 0.43 0.43 0.49 0.46 0.47 0.46 0.38 0.42 0.36 0.36 0.37 0.34 0.42 0.45 0.46 0.47 0.38 0.41 0.38 0.40 0.36 0.34 0.36 0.26 0.30 0.30 0.31 0.27 0.30 0.34 0.31 0.34 0.22 0.21 0.24 0.28 0.33 0.35 0.42 0.35 0.35 0.30 0.32 0.32 0.30 0.31 0.29 0.25 0.23 0.20 0.19 0.18 0.17 0.18 0.18 0.19 0.19 0.18 0.17 0.18 0.19 0.17 0.17 0.21 0.23 0.21 0.22 0.28 0.36 0.42 0.44 0.43 0.44 0.48 0.53 0.60 0.69 0.75 0.76 0.75 0.76 0.78
0.39 0.40 0.42 0.50 0.41 0.47 0.48 0.48 0.49 0.47 0.44 0.45 0.42 0.40 0.36 0.37 0.36 0.42 0.41 0.40 0.40 0.40 0.43 0.33 0.37 0.37 0.37 0.39 0.38 0.31 0.31 0.23 0.24 0.29 0.30 0.33 0.30 0.21 0.16 0.21 0.25 0.29 0.32 0.35 0.35 0.38 0.35 0.31 0.32 0.32 0.29 0.28 0.28 0.25 0.23 0.20 0.19 0.19 0.18 0.19 0.20 0.20 0.19 0.19 0.19 0.19 0.19 0.18 0.20 0.21 0.24 0.22 0.23 0.29 0.39 0.48 0.54 0.57 0.60 0.65 0.67 0.65 0.65 0.69 0.71 0.72 0.74 0.76
0.32 0.33 0.33 0.44 0.46 0.47 0.50 0.50 0.47 0.46 0.41 0.44 0.38 0.39 0.41 0.38 0.37 0.42 0.45 0.42 0.34 0.34 0.42 0.35 0.35 0.39 0.40 0.41 0.39 0.33 0.34 0.35 0.32 0.27 0.36 0.32 0.27 0.24 0.18 0.21 0.22 0.29 0.33 0.32 0.32 0.41 0.35 0.31 0.35 0.31 0.27 0.25 0.27 0.26 0.23 0.21 0.20 0.18 0.18 0.19 0.20 0.20 0.20 0.21 0.21 0.21 0.21 0.21 0.22 0.22 0.23 0.22 0.27 0.38 0.45 0.54 0.59 0.62 0.63 0.61 0.62 0.65 0.68 0.69 0.69 0.70 0.72 0.75
0.43 0.47 0.45 0.37 0.36 0.42 0.48 0.48 0.45 0.42 0.39 0.40 0.39 0.40 0.44 0.41 0.39 0.45 0.44 0.51 0.41 0.35 0.37 0.34 0.39 0.39 0.41 0.40 0.40 0.37 0.42 0.40 0.38 0.36 0.37 0.35 0.25 0.32 0.31 0.24 0.28 0.26 0.30 0.30 0.33 0.36 0.37 0.33 0.35 0.30 0.25 0.23 0.26 0.23 0.21 0.21 0.20 0.19 0.18 0.19 0.20 0.20 0.19 0.20 0.19 0.21 0.19 0.18 0.21 0.21 0.22 0.21 0.27 0.41 0.48 0.52 0.54 0.54 0.53 0.57 0.60 0.63 0.66 0.67 0.66 0.68 0.71 0.75
0.46 0.50 0.50 0.42 0.34 0.41 0.41 0.47 0.46 0.42 0.34 0.40 0.41 0.42 0.43 0.44 0.47 0.48 0.41 0.49 0.52 0.48 0.44 0.42 0.40 0.40 0.37 0.38 0.35 0.41 0.44 0.45 0.45 0.45 0.45 0.44 0.42 0.41 0.38 0.36 0.34 0.29 0.30 0.31 0.37 0.33 0.37 0.34 0.30 0.29 0.25 0.23 0.27 0.24 0.21 0.20 0.19 0.18 0.18 0.19 0.20 0.20 0.21 0.21 0.22 0.23 0.20 0.22 0.19 0.18 0.19 0.24 0.32 0.43 0.39 0.43 0.46 0.49 0.53 0.55 0.58 0.62 0.64 0.65 0.66 0.68 0.73 0.77
Wind_Speed
22 23 23 24 24 25 25 25 25 25 26 26 26 27 27 28 28 29 30 30 30 31 31 32 32 33 33 34 35 35 36 36 37 37 38 38 38 39 39 40 42 41 40 39 39 39 39 39 40 39 38 38 38 38 38 37 36 35 34 36 37 36 35 32 30 29 26 25 23 23 23 23 22 20 19 19 18 17 17 17 16 16 16 15 14 13 14 15
23 24 24 25 25 25 25 25 25 25 25 26 26 26 27 27 28 28 29 29 30 30 31 31 31 32 32 33 34 35 35 36 36 37 37 37 37 37 37 38 41 41 40 39 39 38 38 38 39 38 38 38 38 38 38 38 37 37 35 37 39 36 34 32 30 29 27 26 25 24 24 23 23 21 20 21 20 18 16 16 16 15 15 14 14 14 15 15
25 25 25 25 25 25 25 25 26 26 26 26 27 27 27 27 28 29 29 29 30 30 30 31 31 31 31 32 33 33 34 34 35 35 34 33 34 35 36 37 39 41 40 39 38 37 37 37 37 38 38 38 38 38 38 38 38 38 37 38 39 36 34 33 31 30 29 27 26 26 24 23 23 22 21 22 21 20 18 17 16 16 16 15 16 16 17 17
25 26 25 25 25 25 26 26 26 27 27 27 28 28 28 28 29 29 30 30 30 31 31 31 31 31 31 31 32 32 32 33 33 32 32 31 32 33 34 35 37 40 40 39 38 37 37 36 36 36 37 38 38 38 38 39 38 37 38 38 37 35 35 34 33 31 30 29 27 25 24 24 24 22 22 22 21 21 21 21 20 19 18 17 18 18 18 18
26 26 26 25 25 26 26 26 27 27 28 28 28 29 29 29 29 30 30 30 31 31 31 31 32 32 31 31 31 31 30 30 30 30 31 31 31 31 31 32 34 38 39 38 38 37 37 36 35 34 36 37 38 38 38 40 38 37 38 37 36 35 34 34 33 32 30 29 27 25 25 25 24 23 23 23 23 23 22 22 22 21 20 19 20 19 19 19
26 26 26 26 26 26 27 27 28 28 29 29 29 29 30 30 30 30 31 31 31 31 32 32 32 32 31 31 31 30 29 29 29 29 30 31 30 30 29 30 32 35 38 38 37 36 36 36 35 34 35 35 37 38 38 39 39 38 38 37 36 36 34 33 32 32 30 29 28 26 25 25 23 24 24 24 24 24 22 22 21 21 21 20 19 19 19 19
26 25 26 26 26 26 27 27 28 28 29 29 29 30 30 30 30 31 31 31 31 31 31 31 32 32 31 31 31 30 30 31 32 32 32 32 31 29 29 29 30 33 36 37 37 36 36 35 35 35 34 34 36 38 37 37 38 39 37 36 37 36 35 33 31 32 31 30 29 27 26 25 24 25 24 24 24 23 22 21 20 21 21 19 19 19 19 19
26 26 26 26 26 26 27 27 27 28 28 29 29 30 30 30 30 31 31 31 31 31 31 31 31 31 31 31 30 31 31 32 33 33 33 33 32 31 29 29 29 31 34 36 36 36 36 36 36 35 34 34 35 35 36 36 37 39 38 35 35 35 35 34 31 30 30 30 29 27 27 27 26 25 24 24 23 22 20 20 20 21 20 20 19 19 18 18
26 26 26 26 26 26 26 27 27 28 28 29 29 29 30 30 30 30 30 30 30 31 31 31 31 31 31 30 30 31 32 31 32 33 33 33 33 33 32 31 30 31 33 35 35 36 36 36 36 35 34 34 34 34 35 36 36 37 37 35 34 34 34 33 32 31 29 28 27 27 27 27 27 26 24 24 23 22 20 20 20 21 21 20 19 19 19 19
26 26 26 26 26 26 27 27 28 28 29 29 29 29 30 30 30 29 29 29 30 30 30 30 31 31 31 30 30 31 31 30 31 32 33 33 34 34 33 32 31 31 32 34 34 36 37 36 36 35 34 33 34 33 34 35 35 34 36 37 36 35 34 32 31 31 29 27 27 26 26 26 26 26 25 24 24 23 21 21 21 22 21 20 20 19 19 19
27 26 26 26 27 27 27 28 29 29 29 30 30 30 30 30 30 30 30 29 29 30 30 30 30 30 30 31 31 32 31 31 33 34 35 35 35 35 34 34 33 32 32 33 34 35 36 37 35 34 34 33 33 33 34 35 34 33 33 35 36 36 35 33 31 29 28 27 28 27 26 25 24 25 26 24 24 24 23 22 22 22 22 21 20 19 19 19
27 26 27 27 27 28 29 29 30 30 30 30 31 30 31 31 31 31 31 30 30 29 29 30 30 30 31 32 34 35 34 35 37 38 38 37 36 36 35 35 34 34 33 33 34 34 35 36 36 35 34 33 33 32 32 34 33 33 32 31 33 35 36 35 32 29 28 27 27 26 25 25 25 25 25 25 25 25 23 22 22 22 22 21 20 20 19 18
27 27 27 28 28 29 29 30 30 31 31 31 31 31 31 31 31 31 31 31 30 30 29 30 29 29 31 33 35 36 37 39 39 39 39 38 37 37 36 36 35 34 34 34 34 34 34 34 35 37 35 32 32 31 30 31 32 33 32 31 30 31 34 35 33 31 29 28 27 26 26 26 26 25 24 25 26 25 24 23 23 22 21 21 20 20 19 18
27 28 29 29 29 30 30 30 30 30 30 30 30 30 31 31 31 31 31 30 30 29 29 29 29 29 31 34 35 37 39 39 38 38 38 37 37 37 36 36 35 35 35 35 35 34 34 34 35 36 36 34 33 31 29 28 30 31 30 31 31 31 32 32 32 31 30 29 28 27 27 27 25 24 25 26 26 26 24 24 23 22 21 21 20 20 19 19
28 29 29 29 30 30 30 30 30 30 30 30 30 31 31 31 30 30 29 29 28 29 28 28 29 29 32 35 35 36 37 36 36 37 37 37 37 36 36 35 35 36 35 35 35 35 35 34 34 35 34 34 33 31 29 28 28 30 31 31 32 32 31 30 31 32 31 28 28 28 27 26 25 24 25 26 27 26 24 23 23 23 22 21 20 20 20 19
28 29 30 29 29 30 30 30 30 30 30 30 31 31 30 30 30 28 28 27 27 27 27 28 28 29 32 33 33 34 35 34 34 35 36 36 36 36 35 35 35 36 36 36 35 35 35 35 35 35 34 33 33 31 29 29 28 30 32 31 31 33 31 29 29 31 32 28 28 29 26 25 25 24 25 26 27 26 24 23 23 22 22 21 21 20 20 19
29 30 29 29 29 29 30 30 30 30 30 30 30 30 30 29 28 27 25 24 24 25 25 26 26 28 31 33 33 34 33 34 34 35 37 38 38 38 36 36 35 35 36 36 36 35 35 35 35 35 34 33 32 31 30 32 32 30 31 31 30 31 31 30 29 29 30 30 29 30 27 25 24 24 26 26 26 25 24 24 23 23 22 22 21 21 20 19
30 30 29 29 29 29 29 29 29 29 29 29 29 29 28 27 25 24 23 22 22 22 23 24 24 26 29 30 31 31 30 31 34 35 37 38 39 39 38 37 35 35 35 35 36 35 35 35 34 33 34 34 34 34 33 33 33 31 30 30 28 28 30 31 29 28 29 30 30 29 29 27 23 24 25 25 26 25 24 23 23 23 23 22 21 20 19 19
30 30 30 30 30 29 29 28 28 27 28 28 28 27 26 24 23 22 21 21 21 21 22 22 22 25 27 28 28 30 31 32 33 35 37 38 38 38 38 38 37 36 35 35 35 36 35 34 34 35 36 38 37 37 35 29 30 32 29 29 28 27 29 29 28 28 27 28 30 29 29 27 24 24 25 24 25 24 23 22 22 22 22 21 20 19 19 19
29 30 30 30 29 29 28 27 27 26 27 27 26 25 23 22 22 21 21 22 22 23 24 24 24 26 28 28 28 29 32 33 33 34 36 37 37 37 38 39 37 36 36 35 35 35 35 35 37 39 38 38 37 36 35 28 26 29 29 28 28 27 27 27 27 27 26 25 28 29 28 27 25 25 24 23 23 23 22 22 22 22 21 21 20 20 20 20
29 30 30 29 29 29 27 26 26 26 27 26 24 23 21 21 21 21 23 23 23 24 26 26 26 27 28 28 26 26 27 30 32 34 35 37 38 37 38 39 38 38 37 35 34 34 35 37 39 39 36 35 35 34 35 31 25 25 28 28 28 27 26 25 26 27 26 25 26 27 28 27 26 26 25 23 23 23 23 23 23 22 21 21 20 20 20 19
30 30 30 29 29 28 27 26 26 27 26 24 23 21 21 21 21 22 23 23 22 23 25 26 26 27 27 27 26 25 24 25 29 31 33 35 37 38 37 38 39 38 36 35 35 34 36 39 38 36 34 33 34 34 34 33 27 24 26 27 28 27 25 24 24 25 26 25 24 25 27 27 25 25 25 24 24 23 23 24 23 23 22 21 21 20 20 19
30 30 30 30 29 29 27 26 27 26 25 23 22 21 21 22 21 22 23 23 22 22 23 23 22 24 25 25 23 22 22 22 25 29 31 33 36 38 37 37 38 38 37 38 38 37 36 37 36 35 34 33 33 34 34 34 30 26 25 26 27 26 25 24 23 23 25 25 24 24 25 24 24 25 25 24 24 23 23 23 23 22 22 20 20 19 19 20
30 30 31 30 29 28 27 27 26 24 23 23 22 21 21 21 21 22 21 21 21 20 20 19 18 20 21 20 17 17 19 20 22 25 29 32 35 36 37 37 37 38 39 40 39 38 35 33 34 36 34 33 33 34 35 34 31 27 26 26 25 25 26 25 23 23 22 23 24 23 22 24 26 27 26 25 24 23 23 23 23 23 22 20 19 19 19 20
30 31 31 31 29 28 28 27 24 22 23 23 22 21 21 20 21 21 20 20 19 18 17 16 17 17 16 15 12 12 15 18 22 24 27 31 33 33 35 36 37 38 40 40 38 38 35 30 31 35 35 33 33 33 35 35 32 28 27 27 25 24 24 23 22 23 23 23 25 24 22 23 26 28 27 26 25 25 25 24 24 24 22 21 20 20 20 20
31 31 32 31 29 29 28 25 22 22 23 22 20 20 20 20 20 19 18 18 17 15 13 14 15 14 13 13 10 9 10 14 19 24 27 29 31 31 33 34 36 38 38 38 36 36 36 32 29 33 35 34 33 33 34 34 33 30 27 27 26 23 23 22 21 22 24 25 25 26 23 21 24 27 28 27 26 26 26 26 25 24 23 22 21 20 20 20
31 32 32 31 29 28 26 23 22 23 22 20 19 19 19 19 19 18 17 16 14 12 11 13 13 11 13 13 8 6 8 11 14 20 26 28 29 30 31 33 34 36 36 36 36 35 37 35 30 31 34 34 33 32 33 34 33 31 27 26 25 23 23 23 21 21 23 24 24 26 24 21 22 26 27 27 28 27 27 26 25 24 24 24 22 21 20 20
32 32 32 31 29 28 26 23 24 23 21 19 18 18 18 18 17 16 15 13 11 10 11 12 12 11 13 12 7 7 8 9 11 17 23 26 28 28 29 32 33 34 36 38 37 34 36 37 33 31 33 34 34 32 31 32 32 31 28 24 24 24 23 23 21 20 20 21 24 26 26 22 22 24 25 26 28 29 29 28 25 24 25 24 22 22 21 21
33 33 32 31 29 27 25 23 23 22 20 18 17 17 17 17 16 16 13 10 11 11 11 12 11 11 12 11 7 9 8 9 11 15 20 23 26 28 28 29 32 32 35 38 36 32 33 37 33 30 31 32 32 31 30 31 30 29 28 23 21 21 21 21 21 21 20 21 25 28 27 23 21 23 26 26 28 29 28 26 25 24 24 24 23 23 22 22
33 33 33 31 28 26 23 22 22 21 19 17 16 17 17 16 16 14 12 10 11 11 11 11 11 10 11 10 7 8 8 11 12 14 18 20 24 28 27 27 29 30 32 35 35 31 29 33 33 29 30 30 30 30 30 30 29 27 27 24 20 19 19 19 20 21 20 22 26 28 28 24 21 23 27 27 27 28 27 25 24 24 24 24 23 23 23 22
34 34 34 31 26 24 22 22 22 20 17 16 15 16 16 16 14 12 11 11 12 11 10 10 10 9 10 10 7 6 7 11 12 13 17 19 22 26 26 26 27 28 29 31 34 32 28 30 33 30 29 29 29 30 29 29 28 26 26 25 22 19 18 18 19 20 22 23 25 26 26 25 24 24 25 27 26 27 26 25 25 24 24 25 24 23 23 22
34 35 33 29 24 22 22 22 21 19 16 14 14 15 15 15 14 11 12 13 12 10 10 10 11 10 9 10 7 6 7 11 13 13 16 18 21 25 26 26 28 28 29 31 33 33 29 29 31 30 30 29 28 30 29 28 28 27 27 27 24 20 19 20 21 22 22 21 22 25 25 24 25 25 25 27 26 26 26 25 25 25 24 24 23 23 22 21
35 34 31 27 23 22 22 21 20 18 15 13 14 15 15 14 13 12 12 12 11 11 11 11 11 11 10 10 7 6 8 11 14 13 15 18 20 24 25 26 27 27 28 30 32 32 29 27 29 29 29 30 29 31 31 30 31 30 30 30 27 22 21 23 23 21 21 20 19 23 25 23 24 24 25 28 27 27 27 26 25 25 23 23 23 22 22 21
34 32 28 25 23 23 21 20 18 16 15 14 14 15 14 13 13 12 12 12 12 13 12 12 12 12 10 8 7 5 8 12 14 13 15 17 19 23 25 25 26 25 26 28 30 31 29 26 29 30 29 30 30 30 31 30 30 30 29 30 28 25 23 23 22 21 21 19 18 20 22 22 22 23 25 27 26 26 27 25 23 22 22 22 22 22 21 21
33 29 26 24 24 22 21 19 16 14 14 14 14 14 13 13 13 13 13 13 13 14 13 13 13 12 10 7 6 6 10 13 14 14 15 18 19 22 25 25 26 25 25 27 28 29 29 25 27 30 29 30 30 28 29 29 28 29 28 29 29 27 22 19 20 22 20 17 18 21 22 21 21 21 22 23 22 22 24 24 23 22 22 22 23 23 22 21
30 27 24 24 24 22 21 19 15 13 14 15 14 13 13 14 13 13 13 13 13 14 14 13 10 9 8 6 5 6 10 15 14 14 16 18 19 21 24 25 26 26 25 26 26 27 28 25 24 27 28 29 30 28 29 30 29 28 29 30 30 27 22 18 17 19 18 17 18 20 21 20 19 20 20 21 21 21 23 23 23 23 24 23 23 22 22 21
28 25 23 24 24 23 21 18 14 13 14 14 13 14 15 15 14 13 13 13 13 12 13 12 8 6 7 6 5 5 10 15 16 15 16 17 19 21 23 24 25 27 25 24 24 25 27 25 23 27 28 28 28 28 28 29 29 29 31 31 28 25 23 20 17 15 16 18 18 19 20 20 20 19 20 21 22 22 23 23 22 23 24 23 22 22 21 22
26 23 23 24 24 23 21 17 14 13 14 14 14 15 15 15 14 12 12 13 13 12 11 9 7 6 6 6 5 5 10 16 16 16 16 16 17 20 23 23 24 26 25 23 23 23 24 24 22 25 28 26 26 27 27 28 29 28 29 30 27 25 25 22 19 16 17 18 17 17 19 20 21 21 19 21 23 24 23 23 22 22 22 22 21 21 21 21
25 22 21 23 23 23 20 16 14 14 14 14 14 15 16 16 15 13 12 13 13 12 10 8 7 6 6 6 4 4 11 16 17 16 16 16 17 18 22 24 24 25 25 24 23 22 22 21 21 23 26 25 25 28 29 30 29 27 27 29 28 26 25 24 21 18 17 17 17 16 16 19 22 21 20 22 23 24 24 24 23 22 22 21 20 21 21 21
23 21 20 23 23 22 19 16 16 16 15 15 15 15 16 16 16 14 12 11 10 10 9 8 7 6 6 5 3 5 11 16 17 16 15 15 16 17 20 23 24 24 25 24 23 23 20 19 19 21 24 26 27 29 31 31 30 29 29 31 31 27 24 23 22 19 17 15 16 16 15 18 20 20 20 21 22 23 24 24 23 22 22 21 20 20 20 20
22 20 20 22 22 20 18 17 17 17 17 16 16 15 16 16 16 16 13 8 8 8 8 8 6 6 5 2 3 7 11 15 16 16 15 15 16 16 18 22 25 24 24 22 22 22 20 18 18 20 24 28 28 26 27 28 29 29 28 29 31 28 24 23 22 21 19 15 15 15 15 17 17 17 19 19 19 22 24 24 23 21 22 22 20 20 20 20
20 19 20 22 21 18 18 18 17 17 17 17 16 15 15 15 15 16 14 9 8 8 8 7 7 5 2 1 4 8 12 15 15 15 15 15 16 16 17 21 25 25 23 22 22 22 20 18 17 19 24 27 25 23 24 26 27 27 26 26 28 27 26 24 22 21 21 17 14 14 14 16 16 16 17 18 18 20 22 22 20 20 21 21 20 20 20 19
20 19 19 20 20 18 18 18 17 16 16 17 17 15 14 13 13 14 13 11 9 9 9 8 7 5 4 5 7 10 13 15 15 15 15 14 15 16 18 21 24 25 23 21 22 21 19 18 17 18 20 22 21 20 22 24 25 26 26 25 26 28 27 25 22 21 21 20 16 13 14 16 15 15 16 17 18 19 19 19 19 19 19 20 19 20 20 19
20 18 18 19 19 18 18 18 17 16 17 17 17 16 14 13 12 12 12 11 10 10 10 10 8 7 6 7 9 11 12 13 14 15 14 14 14 15 18 22 25 24 23 21 21 20 19 17 16 17 18 19 18 19 21 24 26 27 27 26 26 27 26 24 22 20 20 21 19 15 15 17 15 15 16 17 17 18 18 19 20 20 19 19 19 19 20 19
19 17 17 18 18 17 17 17 16 16 17 17 17 17 16 14 12 10 9 10 10 10 11 11 9 8 8 8 9 10 12 13 14 13 13 13 13 13 17 23 26 25 23 21 20 19 18 17 16 16 18 20 21 22 24 26 27 27 28 28 27 26 26 25 24 22 21 21 20 18 17 17 15 15 16 17 18 18 19 19 20 20 20 20 20 19 19 19
18 16 17 18 17 16 16 16 15 16 16 17 17 16 16 16 14 10 9 9 9 10 10 10 9 9 9 10 10 10 11 13 13 12 12 12 12 12 16 23 26 26 24 22 19 18 17 16 16 16 18 20 21 22 23 24 26 27 28 29 27 26 26 24 23 23 22 20 20 20 19 16 15 16 17 18 19 19 19 19 20 20 21 20 20 19 19 18
18 16 17 18 17 16 16 15 14 15 16 16 16 16 15 15 15 13 10 9 9 9 10 9 7 7 9 9 9 9 10 10 11 11 11 11 11 11 15 22 26 26 26 22 18 17 16 15 16 16 17 19 20 20 21 24 26 27 28 28 26 25 25 24 24 24 22 19 18 19 18 16 16 17 18 18 19 19 19 20 20 21 21 21 20 19 19 18
19 17 16 17 17 17 17 16 15 15 15 14 14 14 14 14 15 14 11 10 9 8 9 9 7 5 6 7 7 7 8 9 10 10 10 9 10 11 15 20 23 25 24 20 17 17 15 14 15 14 14 16 19 20 21 23 25 26 27 28 26 25 25 24 24 25 23 21 19 17 18 19 17 16 18 18 18 19 19 20 20 21 21 21 20 19 19 19
18 16 16 16 16 16 16 16 16 15 14 13 13 14 14 14 14 13 11 11 10 8 8 8 7 5 4 4 5 6 7 8 9 10 10 9 10 13 18 20 22 23 22 18 17 16 13 12 14 13 12 14 17 20 21 22 23 24 26 27 26 25 25 23 22 23 23 23 21 16 16 19 18 16 17 17 17 17 18 19 20 21 21 21 21 20 19 19
17 16 16 15 15 15 15 16 15 13 12 12 13 13 14 13 13 13 11 9 9 9 8 7 5 4 3 3 5 5 6 7 9 10 10 9 10 14 18 19 21 22 20 18 17 15 12 11 12 12 11 12 15 18 20 20 22 24 26 26 25 24 24 22 20 21 22 22 20 16 15 17 18 17 16 16 17 18 19 20 20 21 21 21 20 20 20 20
18 17 16 15 14 14 15 16 15 13 12 12 12 13 14 14 13 13 11 8 7 8 7 6 5 4 4 5 6 5 6 9 11 12 11 10 12 15 17 19 20 21 19 17 16 15 12 10 10 10 10 12 14 17 19 19 20 22 25 26 25 24 23 22 21 21 22 22 20 17 15 15 16 17 17 17 17 18 19 20 20 20 21 21 20 20 20 20
18 18 16 14 13 13 14 15 15 14 12 11 12 12 12 13 13 12 11 9 7 7 6 5 5 4 5 5 4 5 7 9 11 11 10 11 14 16 18 19 19 19 18 16 15 14 11 9 9 10 10 11 13 16 19 19 18 20 24 26 26 24 23 21 20 21 22 21 20 20 19 17 15 16 17 18 19 19 20 20 21 21 21 20 20 20 20 21
Wind_Direction
302 300 298 297 295 294 293 291 289 287 286 284 282 281 279 277 276 276 276 274 273 271 269 268 267 266 265 265 264 264 263 261 258 256 253 250 248 249 249 248 246 243 241 241 240 240 239 238 237 235 234 234 235 235 235 235 235 235 237 238 239 239 239 238 239 241 242 245 245 243 243 242 247 251 250 252 253 250 251 254 254 255 256 249 237 226 218 217
303 302 300 299 297 296 295 293 291 290 288 286 284 283 281 279 278 277 277 276 274 273 271 270 268 267 266 265 265 264 263 260 258 256 252 249 247 249 250 249 245 241 239 239 239 238 237 237 236 234 233 234 235 234 233 234 234 235 236 238 239 239 240 239 238 240 242 243 244 244 242 241 244 248 250 252 250 248 249 250 249 249 246 239 231 224 220 219
305 303 302 300 298 296 295 293 292 290 289 287 285 284 282 281 279 278 277 276 276 274 273 271 270 268 267 266 265 265 263 259 257 253 248 247 248 250 250 250 245 239 237 236 236 236 235 236 235 233 233 233 234 232 232 233 234 235 236 238 240 240 241 241 238 239 241 242 243 244 243 242 245 247 249 248 246 246 244 242 242 239 234 230 227 223 222 222
306 304 303 300 299 297 295 293 292 291 289 288 286 285 283 282 280 279 277 276 275 275 273 272 271 269 268 267 266 265 262 258 254 247 244 248 250 251 251 251 245 237 235 234 234 235 235 235 234 233 232 233 233 232 232 232 233 235 236 238 240 239 241 242 239 239 241 241 243 243 243 245 247 247 247 243 244 247 243 238 238 234 226 224 224 223 224 225
307 305 303 301 299 298 296 295 293 292 291 289 288 286 285 284 282 281 279 277 275 275 274 273 271 270 269 267 267 265 260 255 250 244 245 250 251 251 252 250 243 236 233 233 232 233 234 233 233 232 231 232 232 231 233 232 232 236 236 238 238 238 241 242 240 240 241 241 243 243 243 246 247 247 244 240 242 245 242 240 238 232 224 221 222 224 225 227
308 306 304 302 300 299 298 298 297 295 294 292 291 289 287 286 285 283 282 280 277 275 274 273 272 270 268 267 266 262 256 252 249 246 248 252 251 251 251 248 242 235 232 231 231 232 232 231 231 231 231 232 231 232 233 231 231 236 237 237 238 237 239 241 240 240 241 241 242 242 244 244 244 245 242 240 242 242 242 240 234 229 224 221 221 221 222 224
309 307 305 303 302 301 300 300 299 298 297 295 293 291 289 287 286 285 283 282 280 277 276 274 272 270 268 267 264 258 253 252 251 249 251 252 251 251 250 247 242 235 231 231 231 231 231 230 230 229 230 231 232 232 232 231 231 235 237 237 237 236 237 240 240 240 240 241 241 242 244 242 239 241 240 241 242 241 240 234 227 224 220 219 220 219 220 223
310 308 306 305 304 303 302 301 301 300 299 297 295 293 291 289 287 285 284 282 280 279 277 275 273 271 268 266 263 258 255 253 253 252 252 251 250 250 248 244 240 236 233 231 230 230 230 229 228 228 229 231 231 230 230 232 233 234 235 236 237 236 237 238 240 240 239 240 241 240 241 239 237 238 238 238 240 238 232 226 220 217 216 218 219 221 224 227
311 310 309 308 306 305 304 303 303 302 301 299 297 295 293 291 289 286 284 282 281 279 277 275 274 271 268 265 261 258 256 255 254 252 251 250 250 249 247 243 240 238 234 232 231 230 230 229 228 227 229 230 230 229 228 229 233 234 233 234 236 237 236 236 238 238 238 238 236 235 237 238 236 235 236 236 233 230 224 220 216 212 213 218 221 224 228 231
313 312 311 309 308 307 306 305 304 303 302 301 299 297 294 292 290 288 286 284 282 279 277 275 274 272 268 265 260 256 256 256 253 252 251 251 250 248 245 242 241 238 235 233 232 230 229 229 228 227 229 230 229 229 228 227 231 232 231 232 233 236 237 234 234 236 236 235 232 231 234 235 234 232 235 232 226 222 218 217 215 211 212 217 222 226 230 232
314 313 312 311 310 309 308 307 306 305 303 302 300 297 295 293 290 289 287 285 283 281 278 275 274 271 267 265 259 256 257 256 254 254 254 252 250 246 243 241 240 237 235 233 231 230 228 228 227 226 227 229 228 229 229 228 231 231 229 231 232 234 236 234 232 232 232 232 229 227 231 234 232 231 231 226 220 218 216 216 216 214 214 217 222 227 231 233
316 314 313 312 311 309 308 307 306 305 304 302 300 298 296 294 291 289 287 286 284 282 279 278 275 271 267 264 259 258 260 258 257 256 253 251 248 245 242 240 238 236 234 232 230 229 227 226 226 226 226 226 226 227 229 228 229 231 229 230 232 231 233 232 230 229 227 230 227 224 230 233 229 229 227 219 216 217 216 216 217 217 217 219 223 227 230 233
318 316 315 314 312 310 308 307 307 306 305 303 301 300 298 296 293 290 288 286 284 281 280 279 276 273 269 263 261 262 262 260 258 255 251 248 245 243 240 238 236 234 232 230 229 227 226 225 225 226 226 225 225 226 229 228 226 228 228 228 229 230 231 228 226 226 224 227 224 221 230 232 229 230 223 214 213 214 216 218 218 220 221 221 225 228 231 234
319 317 317 315 313 312 310 309 308 307 306 305 303 301 299 298 295 292 289 286 283 280 279 279 277 274 270 265 266 266 262 260 257 252 248 245 242 240 238 235 234 232 230 229 228 226 225 225 223 224 225 225 226 227 228 228 226 225 226 228 227 228 231 226 221 221 223 225 220 221 230 230 230 232 221 213 213 212 214 218 220 222 223 223 225 227 231 233
320 319 318 316 315 313 312 311 310 309 308 307 305 302 300 299 297 294 290 286 283 280 279 279 278 276 273 270 270 267 261 257 254 249 245 242 240 237 235 233 231 229 227 226 226 224 223 223 221 221 223 223 223 225 225 226 227 223 223 226 225 226 230 227 221 218 219 223 218 220 229 229 229 229 220 215 214 212 214 217 220 222 223 223 224 226 230 231
321 320 319 318 316 315 314 311 310 309 309 309 307 303 301 299 298 295 291 287 284 282 281 281 279 277 276 275 271 266 259 255 251 247 243 240 237 235 234 232 230 227 225 224 223 223 222 221 220 219 220 220 219 220 221 223 225 224 223 224 223 224 226 226 224 219 216 219 220 221 226 228 228 223 217 215 215 215 215 217 219 221 222 222 224 226 228 230
323 322 321 320 318 317 315 313 311 309 309 310 308 304 302 300 298 295 292 290 288 286 284 283 283 280 278 277 272 264 259 254 250 246 242 239 236 235 232 230 227 224 223 222 221 221 219 218 218 217 217 217 216 215 218 220 221 222 222 223 223 222 221 221 223 221 215 216 220 223 224 227 226 219 215 214 214 215 216 217 219 220 223 223 224 226 227 229
325 324 322 321 319 318 316 314 312 310 310 311 310 307 304 301 298 295 292 291 291 292 290 287 287 286 283 280 271 262 257 254 250 245 241 238 234 232 229 225 223 220 219 220 219 217 216 216 216 215 215 215 214 213 215 219 219 218 218 219 221 220 219 218 220 220 215 216 219 221 223 226 224 218 217 216 214 215 216 217 219 220 223 224 224 225 226 228
326 325 323 322 321 319 317 315 313 312 312 313 312 311 307 303 299 295 292 292 292 294 294 289 285 286 288 284 273 262 257 254 250 243 238 234 230 227 224 221 220 217 215 216 216 214 213 214 213 213 214 213 214 213 214 219 218 216 216 217 218 219 221 219 219 219 215 216 219 219 222 224 220 217 218 218 215 215 215 217 218 220 222 223 223 224 224 226
328 326 325 324 322 320 318 316 315 314 315 315 314 313 312 309 303 296 293 291 289 289 291 288 282 284 289 287 277 267 260 253 246 239 233 229 225 223 221 218 217 215 214 213 213 212 211 213 214 214 214 213 213 213 214 219 218 214 215 217 218 218 221 220 218 218 214 215 220 219 220 222 219 217 218 217 214 213 214 215 217 217 218 220 221 222 222 224
330 329 327 325 324 322 320 318 316 315 316 315 315 314 313 311 305 299 296 290 286 287 287 287 284 286 290 287 278 271 262 252 244 237 231 227 222 219 217 215 214 214 213 210 211 212 210 214 216 214 214 212 212 212 213 218 220 216 215 216 218 217 219 219 217 217 214 215 220 217 218 221 218 217 218 216 212 212 211 212 214 214 216 220 221 221 221 222
332 330 328 327 326 325 322 320 318 317 316 315 314 313 311 310 307 303 301 294 288 287 286 288 288 289 291 287 278 269 259 249 244 237 228 221 217 214 213 212 212 212 210 208 209 211 212 215 214 211 211 210 210 211 212 215 217 217 215 214 217 217 217 217 216 216 212 214 219 216 217 220 219 217 218 217 214 213 211 211 213 214 216 220 219 218 218 218
332 331 329 328 327 326 324 322 320 319 318 316 313 311 311 311 309 307 304 299 295 292 289 290 292 293 294 291 280 266 252 241 238 234 223 214 211 210 209 210 211 210 208 207 208 208 211 215 211 208 209 208 209 210 210 213 215 214 213 212 215 215 213 213 214 212 210 214 215 213 216 219 218 217 217 217 216 215 213 213 215 216 217 218 218 217 216 216
333 332 331 329 327 327 325 323 321 320 320 317 312 310 311 312 312 310 307 301 299 298 294 294 297 298 299 298 285 261 248 236 229 227 219 211 208 209 208 207 208 208 208 208 208 209 212 215 210 206 208 207 208 209 208 211 213 212 211 210 212 213 210 210 211 209 209 214 213 209 214 219 216 215 216 216 216 215 213 212 215 217 218 219 218 217 216 217
333 332 331 330 328 327 326 323 322 322 321 318 314 312 312 313 314 314 311 305 301 301 297 300 304 302 304 305 288 257 246 237 227 221 214 208 205 206 207 206 206 207 207 206 207 209 212 214 208 205 207 206 207 209 208 208 210 212 212 210 209 208 207 207 207 206 206 213 214 208 212 219 216 214 215 214 214 214 212 212 215 217 219 220 218 217 217 217
334 333 332 331 329 328 327 325 323 323 322 320 317 315 314 316 319 318 315 310 305 303 301 306 311 309 311 311 292 262 245 236 227 218 210 206 205 205 205 205 205 206 204 203 207 209 209 211 208 205 206 205 206 209 209 207 207 212 212 208 206 205 204 205 204 205 207 212 214 210 211 217 216 215 214 212 213 214 213 215 217 217 218 219 218 217 216 216
334 333 333 331 330 330 328 326 324 323 322 322 321 319 318 320 323 322 321 317 310 308 307 310 315 315 315 310 292 260 241 234 224 211 204 203 204 203 202 203 203 203 202 202 207 208 205 207 208 206 205 205 207 208 208 206 206 211 210 202 203 205 205 203 201 205 209 211 213 213 212 214 216 216 213 211 212 214 215 216 218 218 218 218 219 218 216 217
334 334 333 332 330 329 327 325 322 321 321 320 320 321 322 325 326 325 327 323 316 315 315 313 313 315 318 312 279 249 240 230 216 204 199 200 202 199 199 202 201 200 200 200 205 205 203 205 206 204 205 207 206 206 205 204 206 210 205 199 200 204 204 202 201 205 209 209 212 214 212 213 219 217 213 212 213 214 215 217 219 219 218 217 219 219 218 218
335 335 334 332 330 327 327 325 322 322 321 320 322 323 325 328 328 330 332 323 318 320 319 318 317 317 324 320 279 250 241 222 209 200 196 198 200 197 198 200 198 198 199 200 202 204 204 204 203 201 205 207 205 204 203 202 206 207 200 198 201 203 204 203 205 207 210 214 215 213 210 212 220 218 212 213 215 215 216 218 219 219 217 218 219 219 219 219
336 336 334 332 330 329 330 328 325 324 321 319 321 323 326 328 328 333 331 322 322 322 320 324 324 321 329 332 300 255 232 215 205 195 194 197 198 197 196 196 194 195 197 199 201 203 203 203 202 201 203 205 203 202 202 201 203 200 197 198 201 204 205 205 208 207 210 219 218 212 210 212 220 219 214 215 216 215 216 218 218 217 218 219 220 220 220 220
337 337 335 333 330 330 332 331 330 327 321 319 320 322 326 327 329 331 325 322 324 321 323 326 323 322 331 336 313 258 224 208 197 188 192 195 194 193 193 193 193 191 192 195 198 202 202 200 202 202 200 201 200 200 201 200 199 195 196 197 197 201 202 203 208 207 211 220 219 212 210 213 220 221 217 218 219 216 216 217 215 215 217 218 219 219 219 220
338 337 336 335 333 332 332 333 336 334 328 325 324 324 326 328 327 320 318 326 326 321 326 323 318 320 322 327 312 255 220 202 193 186 189 192 191 191 191 191 191 188 192 194 194 198 200 199 201 202 199 198 197 196 197 199 198 195 194 193 193 198 199 201 207 208 211 219 218 211 208 214 223 223 218 218 219 218 217 216 214 214 215 216 217 218 218 219
339 339 339 339 338 336 334 333 337 340 337 333 331 329 328 328 325 319 319 323 319 317 323 317 313 316 312 315 308 254 215 198 191 185 186 190 190 191 191 190 189 188 192 193 190 194 197 199 200 199 199 198 196 195 195 197 197 195 194 193 194 197 198 203 207 208 211 215 215 210 210 218 225 225 219 216 217 219 217 217 216 216 216 215 215 216 216 217
340 341 342 343 341 339 337 335 337 341 340 337 335 335 331 326 324 323 322 319 316 318 319 314 313 313 305 300 294 252 209 199 192 182 185 190 188 189 191 190 188 188 190 190 191 192 194 198 199 197 198 198 197 197 196 195 195 196 196 196 197 199 200 203 206 206 209 212 211 209 213 218 220 223 222 217 218 220 218 218 217 216 216 214 215 216 215 217
342 344 346 347 347 344 342 342 342 342 340 339 340 337 331 328 326 325 324 321 321 320 316 311 310 310 306 294 283 247 204 198 193 183 186 191 187 187 190 190 188 188 188 188 191 192 193 199 200 197 197 196 195 197 195 192 194 197 197 197 201 201 199 202 204 204 205 207 210 210 216 220 219 225 226 219 219 219 214 214 213 211 211 211 214 215 214 216
345 349 351 352 351 350 348 346 346 344 342 343 343 336 330 330 330 328 327 324 324 325 321 316 309 307 311 303 283 247 205 197 193 187 189 191 189 188 189 190 189 187 186 188 190 190 192 198 200 195 196 197 195 194 196 195 194 196 197 200 203 200 197 200 205 207 205 207 214 214 218 224 222 226 227 217 214 215 212 212 211 209 208 209 213 214 214 217
348 351 354 354 354 354 353 350 350 348 345 347 343 337 336 336 333 331 331 330 329 330 328 323 315 307 313 309 282 240 203 196 193 189 189 190 190 189 188 190 189 187 186 186 188 190 190 195 199 193 194 199 195 192 197 198 194 195 199 201 200 199 203 204 205 209 206 209 218 215 214 219 218 221 224 216 212 214 213 212 211 209 207 208 212 214 214 217
349 351 355 355 356 357 356 355 356 353 351 350 340 338 344 343 339 337 335 333 330 326 323 319 314 307 313 314 290 233 196 192 191 188 187 188 190 188 186 188 189 187 185 183 185 188 187 192 199 196 193 194 193 192 197 200 197 198 200 200 197 199 205 205 202 205 204 207 217 218 215 217 216 219 220 215 213 213 211 210 210 209 207 208 211 211 212 214
351 353 356 356 357 358 359 2 4 359 355 353 347 345 350 349 344 339 334 333 331 325 319 312 308 308 311 310 286 217 187 186 187 185 184 185 188 187 185 187 188 186 184 182 183 186 185 186 193 195 192 189 190 194 196 197 198 198 199 200 200 201 204 203 203 204 202 204 212 216 218 221 220 219 217 214 213 210 208 208 208 207 206 205 207 208 209 211
353 355 356 358 359 1 6 10 9 4 359 357 355 353 353 352 350 346 339 337 339 336 329 320 312 308 312 306 251 194 181 181 182 182 182 182 185 186 185 186 185 183 183 183 184 185 184 183 187 190 190 189 193 198 197 195 195 196 197 199 200 201 202 202 206 207 203 203 209 210 218 225 223 219 216 214 211 208 206 206 206 205 203 203 204 204 205 208
355 357 356 358 1 6 12 13 9 7 4 2 359 355 353 353 355 356 353 349 351 351 347 342 334 320 318 307 196 178 174 176 178 179 180 179 180 183 185 184 182 181 181 183 185 184 182 183 185 187 189 192 196 198 196 195 195 195 197 199 199 199 198 199 206 210 206 206 208 206 217 227 224 219 217 214 210 208 205 204 204 203 201 200 201 202 203 204
357 358 357 359 3 8 13 12 11 12 10 5 2 357 352 351 356 3 7 11 11 9 10 9 5 355 352 145 159 161 165 169 171 173 176 177 178 180 182 182 180 177 178 183 185 182 181 183 185 189 192 194 198 197 193 192 193 195 198 200 199 199 198 199 204 208 207 209 210 208 218 227 224 221 218 212 208 207 206 204 203 201 200 199 199 201 202 201
357 357 357 0 3 7 10 11 12 15 13 9 6 1 355 355 0 7 14 20 23 25 27 24 22 35 77 120 138 147 155 162 166 169 172 174 178 181 179 177 177 177 177 181 182 180 181 183 185 190 191 191 196 197 193 191 192 196 200 199 199 201 202 202 204 205 206 210 211 212 221 227 225 223 217 207 202 202 203 202 199 199 200 198 198 199 199 197
355 355 359 2 3 6 9 9 10 12 12 11 9 6 5 6 5 7 15 24 29 33 34 34 40 60 87 110 129 141 146 153 161 166 168 169 173 178 178 177 178 178 178 178 178 179 182 184 184 185 183 182 187 190 191 193 194 197 199 198 199 201 201 203 205 205 208 211 209 210 222 227 226 224 216 204 198 198 197 196 196 197 198 196 196 197 196 195
356 357 359 2 4 6 8 9 10 10 11 10 8 8 11 14 13 12 17 24 31 37 39 43 54 69 86 106 125 138 143 147 155 161 164 166 169 172 176 179 179 178 177 177 177 178 182 183 181 180 180 182 187 190 192 193 194 196 197 197 199 198 198 203 205 205 209 212 209 211 221 229 227 220 213 204 198 197 195 193 195 197 196 195 196 195 193 193
359 -0 359 1 4 6 5 6 10 12 12 12 11 11 14 17 20 24 28 31 37 44 45 49 59 69 81 96 115 132 140 144 149 157 162 165 167 169 173 176 177 177 178 178 175 174 178 183 182 182 185 187 190 195 195 191 192 195 196 196 198 198 199 201 202 204 207 208 212 217 220 227 227 216 210 207 201 199 198 196 196 195 194 194 195 193 191 192
360 360 360 1 3 4 4 6 12 13 11 14 16 14 13 14 18 28 39 41 43 44 42 43 55 71 81 89 105 125 136 140 147 155 160 163 168 171 171 172 174 177 179 177 175 171 173 182 184 183 189 193 193 195 195 191 192 195 194 195 196 195 197 200 202 206 204 202 215 222 217 219 224 215 209 207 202 200 201 199 196 194 193 193 193 191 190 191
359 358 359 1 2 4 5 3 2 3 5 13 19 16 12 11 15 23 32 34 35 41 40 36 45 79 96 91 100 124 138 144 151 155 157 161 167 166 163 165 171 177 176 174 174 171 170 183 187 184 193 199 195 194 195 193 193 193 193 194 194 193 194 198 203 205 203 203 215 219 212 216 222 215 209 207 203 201 200 197 194 192 192 193 193 192 192 193
357 357 358 360 360 360 358 353 351 354 -0 10 18 17 11 9 10 16 25 29 28 36 43 37 44 78 106 104 110 128 143 149 156 158 155 155 158 158 158 161 168 173 172 170 173 171 171 183 186 186 198 203 194 191 192 192 190 191 192 193 193 194 196 199 203 205 206 210 215 214 213 219 220 213 209 207 204 200 197 195 193 191 191 194 195 196 197 197
356 356 356 356 356 355 355 353 355 358 0 7 16 15 9 7 7 10 20 29 23 26 36 34 41 73 109 128 130 142 156 157 161 163 156 149 151 156 160 164 167 168 168 170 173 171 171 179 181 183 194 200 192 186 187 189 189 189 193 194 192 194 197 201 204 205 207 211 212 210 216 224 222 214 207 201 197 196 195 195 195 194 194 196 197 200 201 201
355 354 353 353 354 356 359 360 0 2 5 10 14 11 8 7 5 5 12 21 16 13 18 20 27 59 105 124 137 162 171 161 165 170 165 160 162 163 163 166 167 168 169 171 172 172 172 178 182 182 189 197 192 183 183 186 185 186 193 195 192 193 198 202 205 205 205 207 207 207 216 225 222 214 207 201 196 196 198 197 197 197 197 198 201 204 205 207
352 353 353 353 352 356 1 2 1 4 8 10 8 6 5 3 2 4 10 13 6 354 355 11 29 56 93 113 135 156 159 161 173 183 179 173 174 171 167 167 169 169 169 169 171 173 172 177 186 184 185 192 190 183 181 181 182 189 196 196 195 196 198 202 208 210 206 204 204 208 217 222 216 208 207 206 203 202 203 202 202 202 202 204 207 207 208 210